STARLINK-32379, 61851

Orbit data source: Space-Track

STARLINK-32379, 61851 is a payload satellite owned by SpaceX/Seattle (US) in LEO that was launched on Thu, 07 Nov 2024 UTC via an FALCON 9 launch vehicle from the Air Force Eastern Test Range (AFETR). Payload-class satellites include a variety of spacecraft equipped with specific instruments for various scientific and technological missions. These include communications satellites like Starlink; space stations such as the ISS; scientific satellites like the Hubble; Earth observation satellites from companies like Planet Labs, Umbra, and HawkEye 360; GPS; miniature CubeSats for education and research; and military/defense satellites.

Loading next visibility...
Identifier
61851, 2024-202G
Orbit
LEO
Country
Flag of USUS
Related business
Manufacturer
SpaceX/Seattle
Mission
Operational Commercial Communications
Bus & Motor
STARLINK V2M, Unknown motor
Mass
730 kg wet, ~700 kg dry
Launch date (UTC)
2024-11-07 (1 year ago)
Launch vehicle
FALCON 9
Launch site
Air Force Eastern Test Range (AFETR)
Object type
Payload
Rocket body
Debris
Shape & HBR
Box + 2 Pan, 17.7 m
Radar Cross Section
33.884 m², Large (>1 m²)

Expand to show TLE details & history
Last TLE update: 19 hours ago

TLE from 19 hours ago
0 STARLINK-32379
1 61851U 24202G   25352.31484960  .00000315  00000-0  20969-4 0  9992
2 61851  43.0017 326.2013 0000360 322.5862  37.4964 15.27564920 63016
Epoch: 2025-12-18T07:33Z
TLE epoch observation values (Epoch: 2025-12-18T07:33:23.005Z)
Latitude
-0.00005°
Longitude
125.68326°
Altitude
482.674 km
Speed
7.626 km/s
True Right ascension
21h 44m 48s
True Declination
0° 00' 00"
Sunlit
Object was in daylight at epoch
Visualization orbit readout
Latitude
Unknown
Longitude
Unknown
Altitude
Unknown
Speed
Unknown
Apparent Right ascension
Unknown
Apparent Declination
Unknown
Sunlit
N/A
Visualization observer readout
Local Sidereal Time
01:06:19
Azimuth
Unknown
Elevation
Unknown
Doppler factor
Unknown
Orbital elements
Apogee altitude
485.286 km
Perigee altitude
484.792 km
Semi-major axis
6,863.176 km
Eccentricity
0.00004
Inclination
43.0017°
RAAN
326.2013°
Arg. of periapsis
322.5862°
True anomaly
37.49891°
Mean anomaly
37.4964°
Eccentric anomaly
37.49766°
Mean motion
3.81729 °/min
Orbital period
94.31 mins
BSTAR
0.000020969
Loading maneuver chart data...
Computing Atmospheric mass density...
Loading historical data...
Loading historical data...
Loading historical data...
Loading historical data...
Loading historical data...
Loading historical data...
Loading historical data...

Documentation

Showing up to 5 results
|